Probability
0 0 0 0 0 0 0 0 0 0 0 0 0 0 0 0 0 0 0 0 0 0 0 0 0 0 0 0 0 0 0 0 0 0 0 0 0 0 0 0 0 0 0 0
0 0 0 0 0 0 0 0 0 0 0 0 0 0 0 0 0 0 0 0 0 0 1 1 0 0 0 0 0 0 0 0 0 0 0 0 0 0 0 0 0 0 0 0
0 0 0 0 0 0 0 0 0 0 0 0 0 0 0 0 0 0 0 0 0 0 1 2 1 0 0 0 0 0 0 0 0 0 0 0 0 0 0 0 0 0 0 0
0 0 0 0 0 0 0 0 0 0 0 0 0 0 0 0 0 0 0 0 0 0 1 1 1 0 0 0 0 0 0 0 0 0 0 0 0 0 0 0 0 0 0 0
0 0 0 0 0 0 0 0 0 0 0 0 0 0 0 0 0 0 0 0 0 0 0 0 0 0 0 0 0 0 0 0 0 0 0 0 0 0 0 0 0 0 0 0
0 0 0 0 0 0 0 0 0 0 0 0 0 0 0 0 0 0 0 0 0 0 0 0 0 0 0 0 0 0 0 0 0 0 0 0 0 0 0 0 0 0 0 0
0 0 0 0 0 0 0 0 0 0 0 0 0 0 0 0 0 0 0 0 0 0 0 0 0 0 0 0 0 0 0 0 0 0 0 0 0 0 0 0 0 0 0 0
0 0 0 0 0 0 0 0 0 0 0 0 0 0 0 0 0 0 0 0 0 0 0 0 0 0 0 0 0 0 0 0 0 0 0 0 0 0 0 0 0 0 0 0
0 0 0 0 0 0 0 0 0 0 0 0 0 0 0 0 0 0 0 0 0 0 0 0 0 0 0 0 0 0 0 0 0 0 0 0 0 0 0 0 0 0 0 0
0 0 0 0 0 0 0 0 0 0 0 0 0 0 0 0 0 0 0 0 0 0 0 0 0 0 0 0 0 0 0 0 0 0 0 0 0 0 0 0 0 0 0 0
0 0 0 0 0 0 0 0 0 0 0 0 0 0 0 0 0 0 0 0 0 0 0 0 0 0 0 0 0 0 0 0 0 0 0 0 0 0 0 0 0 0 0 0
0 0 0 0 0 0 0 0 0 0 0 0 0 0 0 0 0 0 0 0 0 0 0 0 0 0 0 0 0 0 0 0 0 0 0 0 0 0 0 0 0 0 0 0
0 0 0 0 0 0 0 0 0 0 0 0 0 0 0 0 0 0 0 0 0 0 0 0 0 0 0 0 0 0 0 0 0 0 0 0 0 0 0 0 0 0 0 0
0 0 0 0 0 0 0 0 0 0 0 0 0 0 0 0 0 0 0 0 0 0 0 0 0 0 0 0 0 0 0 0 0 0 0 0 0 0 0 0 0 0 0 0
0 0 0 0 0 0 0 0 0 0 0 0 0 0 0 0 0 0 0 0 0 0 0 0 0 0 0 0 0 0 0 0 0 0 0 0 0 0 0 0 0 0 0 0
0 0 0 0 0 0 0 0 0 0 0 0 0 0 0 0 0 0 0 0 0 0 0 0 0 0 0 0 0 0 0 0 0 0 0 0 0 0 0 0 0 0 0 0
0 0 0 0 0 0 0 0 0 0 0 0 0 0 0 0 0 0 0 0 0 0 0 0 0 0 0 0 0 0 0 0 0 0 0 0 0 0 0 0 0 0 0 0
0 0 0 0 0 0 0 0 0 0 0 0 0 0 0 0 0 0 0 0 0 0 0 0 0 0 0 0 0 0 0 0 0 0 0 0 0 0 0 0 0 0 0 0
0 0 0 0 0 0 0 0 0 0 0 0 0 0 0 0 0 0 0 0 0 0 0 0 0 0 0 0 0 0 0 0 0 0 0 0 0 0 0 0 0 0 0 0
0 0 0 0 0 0 0 0 0 0 0 0 0 0 0 0 0 0 0 0 0 0 0 0 0 0 0 0 0 0 0 0 0 0 0 0 0 0 0 0 0 0 0 0
0 0 0 0 0 0 0 0 0 0 0 0 0 0 0 0 0 0 0 0 0 0 0 0 0 0 0 0 0 0 0 0 0 0 0 0 0 0 0 0 0 0 0 0
0 0 0 0 0 0 0 0 0 0 0 0 0 0 0 0 0 0 0 0 0 0 0 0 0 0 0 0 0 0 0 0 0 0 0 0 0 0 0 0 0 0 0 0
0 0 0 0 0 0 0 0 0 0 0 0 0 0 0 0 0 0 0 0 0 0 0 0 0 0 0 0 0 0 0 0 0 0 0 0 0 0 0 0 0 0 0 0
0 0 0 0 0 0 0 0 0 0 0 0 0 0 0 0 0 0 0 0 0 0 0 0 0 0 0 0 0 0 0 0 0 0 0 0 0 0 0 0 0 0 0 0
0 0 0 0 0 0 0 0 0 0 0 0 0 0 0 0 0 0 0 0 0 0 0 0 0 0 0 0 0 0 0 0 0 0 0 0 0 0 0 0 0 0 0 0
0 0 0 0 0 0 0 0 0 0 0 0 0 0 0 0 0 0 0 0 0 0 0 0 0 0 0 0 0 0 0 0 0 0 0 0 0 0 0 0 0 0 0 0
Wind_Speed
2 4 3 5 4 3 4 3 1 2 1 2 3 7 10 5 4 6 6 6 8 9 6 5 5 6 7 7 7 7 6 5 4 2 2 2 1 0 1 1 1 2 2 2
4 1 3 3 3 3 3 2 0 2 1 1 2 6 7 3 4 6 7 7 8 7 4 5 5 6 8 8 8 7 7 6 5 3 2 2 2 1 1 1 1 2 2 2
4 2 4 4 3 2 1 2 2 1 2 3 3 7 6 4 3 2 3 4 6 8 8 7 7 7 7 8 9 8 7 6 5 4 3 2 2 2 1 1 2 2 2 2
1 1 3 3 2 3 1 2 2 1 3 3 3 3 7 6 6 4 3 2 5 6 6 6 7 8 9 9 7 7 7 6 5 5 4 4 3 2 2 1 1 2 2 2
1 3 3 2 3 5 2 1 2 2 3 3 4 2 8 6 6 6 5 4 4 5 6 8 8 8 7 7 7 6 6 5 5 4 5 4 3 2 1 1 1 2 2 2
1 2 3 4 1 4 2 4 5 5 5 4 3 2 5 4 4 7 7 5 4 3 4 5 4 5 5 5 6 6 6 5 5 5 5 5 5 3 2 1 1 2 2 2
3 1 1 3 2 2 3 5 5 6 5 2 3 1 6 6 4 5 7 7 4 2 2 4 5 6 6 7 7 7 7 6 6 5 5 5 5 4 4 3 2 2 2 2
3 2 2 2 3 4 3 6 6 3 2 3 4 1 6 5 5 4 4 4 4 3 2 3 5 6 6 7 7 7 8 7 6 6 5 4 4 3 3 3 3 3 3 3
4 2 3 1 2 7 5 3 5 7 2 2 4 5 7 6 8 9 9 8 7 5 4 3 2 3 5 6 7 8 8 7 7 7 5 5 5 4 4 3 3 3 3 2
5 3 2 2 5 4 4 7 5 5 4 2 4 3 4 6 7 8 9 8 8 7 5 4 2 2 3 4 4 5 7 7 7 6 6 5 5 5 4 3 4 4 3 2
3 4 2 3 2 1 3 4 6 5 5 5 0 4 3 3 4 5 6 6 7 7 6 5 3 2 1 2 3 5 5 5 5 6 6 5 5 5 4 4 4 4 3 3
3 6 1 2 2 1 2 4 6 5 2 3 4 5 4 2 2 3 5 6 7 7 6 5 4 3 1 1 2 4 5 5 6 6 6 6 5 4 5 5 5 4 4 3
3 6 4 4 5 5 3 3 4 6 5 4 4 5 2 3 4 4 5 6 7 8 9 8 6 5 3 2 2 3 4 5 5 5 5 5 5 6 6 6 5 5 4 4
5 5 6 7 6 2 1 1 4 5 4 4 6 5 3 4 4 5 6 6 6 7 8 9 8 6 5 3 2 3 4 5 4 5 5 6 7 7 7 6 5 5 5 4
5 4 2 2 1 0 1 2 3 5 7 8 7 6 4 1 1 3 4 6 8 10 10 10 9 8 7 6 4 3 4 4 4 5 6 7 6 5 5 6 6 5 5 6
4 4 2 1 1 1 2 4 3 4 4 4 3 3 2 2 2 4 5 7 8 8 9 9 9 10 9 8 6 4 4 3 4 5 7 6 5 5 6 6 6 5 6 5
3 3 3 2 3 2 5 4 4 3 2 5 6 6 4 3 4 3 3 5 6 6 7 8 8 8 8 8 7 5 4 2 3 5 5 5 5 6 7 6 6 7 7 6
4 4 3 1 1 4 6 2 3 4 1 0 2 4 6 5 4 3 2 3 4 5 6 7 7 7 7 8 7 6 4 1 2 3 4 4 5 6 6 5 7 7 6 6
4 6 4 3 1 5 5 1 3 3 0 0 3 4 4 4 3 3 3 2 2 3 3 4 5 5 6 8 8 7 6 4 3 4 5 5 5 6 6 7 8 7 6 6
4 4 5 4 3 6 6 1 1 4 2 2 4 5 4 4 2 2 2 2 2 3 3 4 5 5 7 7 7 7 7 7 6 6 7 6 5 6 7 8 8 6 6 7
3 2 3 4 4 8 5 2 3 4 6 3 4 4 5 4 4 3 1 0 1 2 3 4 4 5 6 6 6 7 7 7 8 8 7 6 5 6 7 7 6 5 6 6
6 5 5 5 4 8 2 3 5 5 1 3 4 4 4 3 2 2 1 0 2 3 3 4 4 5 6 6 5 6 7 7 7 7 7 7 6 6 5 5 5 5 6 6
5 7 6 8 7 3 1 2 2 4 4 3 4 3 4 3 2 2 1 0 1 2 3 3 3 4 5 6 5 6 7 8 8 8 8 8 7 5 5 4 5 4 5 6
4 2 3 3 5 3 2 1 1 3 3 3 4 4 4 3 3 2 1 1 1 2 3 3 3 4 6 6 6 6 7 7 7 7 8 8 7 7 5 4 4 4 5 6
5 3 3 4 5 3 3 3 3 2 2 2 3 3 4 4 3 3 2 2 2 2 3 2 3 4 6 6 6 7 7 6 6 7 7 7 6 6 6 5 5 6 7 8
7 8 8 8 8 6 6 5 4 4 5 5 5 4 3 4 5 4 3 3 3 3 3 3 4 5 6 6 7 7 7 6 6 6 6 6 6 6 5 6 6 7 9 11
Wind_Direction
118 92 162 194 184 167 146 146 213 259 228 188 251 275 285 281 232 232 229 222 225 233 235 206 187 171 159 158 164 165 159 162 147 132 133 125 159 286 329 328 348 5 6 9
79 187 207 155 141 108 108 107 308 305 256 197 292 291 292 278 238 227 223 221 223 230 223 201 183 172 172 172 173 171 173 172 175 160 150 150 150 186 251 310 337 357 5 1
146 200 151 128 120 102 80 170 199 248 2 33 1 336 334 328 318 283 230 219 216 217 215 202 187 185 179 181 180 182 181 179 178 155 117 88 64 38 10 340 326 333 347 359
114 141 133 116 147 134 279 246 190 60 50 0 32 349 315 326 336 346 321 266 233 221 209 201 192 189 191 190 180 177 176 177 175 163 160 153 158 185 227 243 282 309 330 346
181 157 147 170 211 171 223 12 107 89 98 36 23 63 304 341 353 331 319 293 258 229 207 207 202 196 192 179 175 174 171 176 175 173 172 161 165 193 216 249 293 310 323 331
220 173 174 197 196 162 138 66 57 51 67 48 357 70 305 312 303 311 317 310 280 246 215 210 199 180 182 172 169 168 172 182 179 176 175 176 179 185 195 232 269 298 310 314
27 352 247 171 109 77 88 80 40 22 28 302 314 108 261 280 294 286 296 305 304 266 205 199 195 192 189 182 180 175 178 188 185 181 188 192 191 189 201 213 226 246 278 283
103 312 270 192 166 145 131 125 139 148 178 298 349 291 267 290 315 329 332 337 352 340 272 228 215 204 199 194 185 181 187 193 187 190 198 198 195 194 208 212 211 223 235 251
148 252 310 250 150 127 122 111 145 122 118 41 330 317 316 350 5 8 10 10 356 338 321 293 261 221 207 199 194 190 190 194 195 197 197 200 200 203 213 218 219 230 239 247
142 119 346 338 70 42 113 136 96 94 113 54 336 332 303 331 340 351 359 353 344 348 348 337 305 253 226 209 194 186 193 199 198 195 199 204 205 210 212 209 224 232 241 242
103 111 2 34 72 146 99 83 94 94 129 134 142 286 264 275 314 339 341 342 343 343 341 339 332 300 232 188 180 185 194 201 202 202 203 205 209 209 206 213 226 226 232 228
93 107 72 305 309 305 131 141 139 133 162 140 147 265 303 319 328 352 351 353 357 356 354 353 354 2 5 232 205 199 199 206 212 205 201 208 210 203 209 222 226 218 224 227
115 100 77 358 346 5 54 96 111 115 111 139 154 251 323 21 21 19 14 7 8 10 13 13 11 5 346 310 264 229 216 218 216 200 201 209 211 210 217 225 223 214 216 222
102 98 149 182 212 229 330 136 140 124 137 182 209 225 295 348 11 13 14 12 16 20 20 17 10 357 342 321 281 256 242 223 212 201 204 213 217 216 220 222 219 215 210 212
81 109 156 211 241 198 239 238 184 183 184 183 213 203 235 242 45 22 17 23 30 24 19 14 7 359 352 342 317 275 257 234 212 202 212 224 224 219 220 221 220 215 212 216
51 109 88 347 12 334 272 265 230 210 192 190 171 217 189 130 90 51 35 37 33 20 11 6 4 3 357 346 327 302 273 244 211 213 223 227 222 218 220 224 219 214 217 218
51 111 113 259 312 350 279 249 197 187 191 170 191 204 157 124 94 70 44 41 33 15 6 3 360 355 349 342 332 318 290 255 215 228 237 231 222 225 227 225 216 217 218 212
127 106 119 146 46 236 246 306 149 131 69 193 166 149 156 150 136 96 63 53 31 11 4 358 353 352 348 350 349 343 349 345 265 256 257 247 231 234 233 223 223 223 214 209
144 131 118 122 186 283 294 196 152 140 194 201 145 146 150 147 97 27 19 32 28 5 354 344 343 344 354 2 360 6 9 0 343 308 283 267 246 241 233 226 229 223 212 214
77 93 112 130 168 240 250 254 174 111 270 224 158 161 161 130 117 260 317 356 9 7 359 352 349 0 8 358 1 17 11 3 341 315 298 278 254 243 238 235 232 221 212 218
99 93 133 158 210 260 257 276 115 155 241 186 160 160 151 166 190 208 257 334 10 7 358 359 5 6 353 346 1 9 2 349 328 317 312 304 273 251 245 242 235 222 214 215
172 163 179 154 192 251 264 119 167 206 174 136 144 152 153 171 180 183 178 5 8 4 357 359 3 352 340 343 358 358 344 326 327 329 323 317 304 280 266 245 241 223 209 212
200 190 185 188 208 244 259 203 207 154 146 162 164 172 157 163 184 190 195 309 336 341 340 343 345 338 336 339 347 339 323 325 330 335 332 321 318 304 284 255 242 232 214 215
265 177 168 242 257 246 252 233 189 164 166 179 176 173 168 180 193 198 218 265 297 310 316 324 336 337 329 327 328 317 314 322 329 330 328 326 322 319 307 281 252 236 226 225
233 185 190 249 265 278 264 225 205 196 175 174 183 187 189 184 199 204 218 245 263 282 292 301 308 308 307 314 317 314 316 325 327 323 322 324 318 312 310 293 265 252 242 231
205 185 184 221 217 199 229 223 203 199 208 203 196 208 209 194 203 208 219 234 246 264 279 292 296 296 298 304 306 307 309 315 319 320 319 317 314 310 307 304 300 273 263 263